Darstellungsparameter: Aktuell verwendete Einstellungen:
Skalierung der Graphiken ... ?
xyx+y,   Skalierungsfaktor:      Skalierung: Modus: x, Faktor: 1
Darstellungszeitraum ... ?
Vom - - bis: - -   Zeitraum: 06.06.2009 - 12.06.2009
Min/Max/Avg-Anzeige ... ?
Zeige MMA aktuell
Zeige MMA Monat
Zeige MMA alles
Zeige --A aktuell
Zeige --A Monat
Zeige --A alles
Keine MMA-Anzeige
MMA:
Average (ber die Originaldaten)
MMA-Basis: 06.06.2009 - 12.06.2009
Quicknavigation für Darstellung... ?
Tage:      1T, 2T, 3T, 5T -1T -2T -3T -5T +1T +2T +3T +5T
Wochen: 1W, 2W, 3W -1W -2W -3W +1W +2W +3W
Monate: 1M, 3M, 6M -1M -3M -6M +1M +3M +6M
Jahre:    1J, 3J, 5J, 10J -1J -3J -5J -10J +1J +3J +5J +10J
Nutze für die Darstellung ... ?
Originaldaten oder Mittelwerte auf ...
Stundenbasis Tagesbasis Wochenbasis
Monatsbasis Jahresbasis      Datenbasis: Original-Daten
Darstellen als:
Statistik (Auto) Statistik J:M      Darstellung:
Zur Graphik,    zurück zur Übersicht aller Sensoren.
 
Tabellarische Datenbersicht: ?
 
Sensor: Nr:Datum:Temp:Abs-Feuchte:Windchill:Wind:
Aussen-T/F 1 06-06-2009 00:07:20 9.8 C 5.29 g/m*3 9.8 C 0 km/h
2 06-06-2009 00:19:20 9.7 C 5.35 g/m*3 9.7 C 0 km/h
3 06-06-2009 00:31:20 9.5 C 5.37 g/m*3 9.5 C 0 km/h
4 06-06-2009 00:43:20 9.1 C 5.32 g/m*3 9.1 C 0 km/h
5 06-06-2009 00:55:20 8.9 C 5.43 g/m*3 8.9 C 0 km/h
6 06-06-2009 01:07:20 8.8 C 5.4 g/m*3 8.8 C 0 km/h
7 06-06-2009 01:19:20 8.6 C 5.33 g/m*3 8.6 C 0 km/h
8 06-06-2009 01:31:20 8.6 C 5.41 g/m*3 8.6 C 0 km/h
9 06-06-2009 01:43:20 8.5 C 5.55 g/m*3 8.5 C 0 km/h
10 06-06-2009 01:55:20 8.3 C 5.48 g/m*3 8.3 C 0 km/h
11 06-06-2009 02:07:20 8.2 C 5.53 g/m*3 8.2 C 0 km/h
12 06-06-2009 02:19:20 8.1 C 5.49 g/m*3 8.1 C 0 km/h
13 06-06-2009 02:31:20 8.1 C 5.57 g/m*3 8.1 C 0 km/h
14 06-06-2009 02:43:20 8.1 C 5.66 g/m*3 8.1 C 0 km/h
15 06-06-2009 02:55:20 8.1 C 5.66 g/m*3 8.1 C 0 km/h
16 06-06-2009 03:07:20 8 C 5.79 g/m*3 8 C 0 km/h
17 06-06-2009 03:19:20 7.8 C 5.79 g/m*3 7.8 C 0 km/h
18 06-06-2009 03:31:20 7.6 C 5.8 g/m*3 7.6 C 0 km/h
19 06-06-2009 03:43:20 7.5 C 5.84 g/m*3 7.5 C 0 km/h
20 06-06-2009 03:55:20 7.4 C 5.81 g/m*3 7.4 C 0 km/h
21 06-06-2009 04:07:21 7.4 C 5.81 g/m*3 7.4 C 0 km/h
22 06-06-2009 04:19:21 7.4 C 5.81 g/m*3 7.4 C 0 km/h
23 06-06-2009 04:31:21 7.3 C 5.85 g/m*3 7.3 C 0 km/h
24 06-06-2009 04:43:21 7.1 C 5.77 g/m*3 7.1 C 0 km/h
25 06-06-2009 04:55:21 7.2 C 5.89 g/m*3 7.2 C 0 km/h
Sensor: Nr:Datum:Temp:Abs-Feuchte:Windchill:Wind:
Aussen-T/F 26 06-06-2009 05:07:21 7.4 C 5.96 g/m*3 7.4 C 0 km/h
27 06-06-2009 05:19:21 7.6 C 6.04 g/m*3 7.6 C 0 km/h
28 06-06-2009 05:31:21 7.8 C 6.04 g/m*3 7.8 C 0 km/h
29 06-06-2009 05:43:21 8 C 6.04 g/m*3 8 C 0 km/h
30 06-06-2009 05:55:21 8.1 C 6.07 g/m*3 8.1 C 0 km/h
31 06-06-2009 06:07:21 8.2 C 6.11 g/m*3 8.2 C 0 km/h
32 06-06-2009 06:19:21 8.4 C 6.19 g/m*3 8.4 C 0 km/h
33 06-06-2009 06:31:21 8.7 C 6.23 g/m*3 8.7 C 0 km/h
34 06-06-2009 06:43:21 8.7 C 6.05 g/m*3 8.7 C 0 km/h
35 06-06-2009 06:55:21 8.9 C 6.13 g/m*3 8.9 C 0 km/h
36 06-06-2009 07:07:21 8.9 C 6.13 g/m*3 8.9 C 0 km/h
37 06-06-2009 07:19:21 8.9 C 6.13 g/m*3 8.9 C 0 km/h
38 06-06-2009 07:31:21 8.6 C 6.27 g/m*3 8.6 C 0 km/h
39 06-06-2009 07:43:21 8.6 C 6.44 g/m*3 8.6 C 0 km/h
40 06-06-2009 07:55:21 8.6 C 6.62 g/m*3 8.6 C 0 km/h
41 06-06-2009 08:07:22 8.6 C 6.79 g/m*3 8.6 C 0 km/h
42 06-06-2009 08:19:22 8.6 C 6.96 g/m*3 8.6 C 0 km/h
43 06-06-2009 08:31:22 8.3 C 7.08 g/m*3 8.3 C 0 km/h
44 06-06-2009 08:43:22 8.3 C 7.33 g/m*3 8.3 C 0 km/h
45 06-06-2009 08:55:22 8.2 C 7.37 g/m*3 8.2 C 0 km/h
46 06-06-2009 09:07:19 8.5 C 7.6 g/m*3 8.5 C 0 km/h
47 06-06-2009 09:19:19 8.4 C 7.63 g/m*3 8.4 C 0 km/h
48 06-06-2009 09:31:20 8.7 C 7.78 g/m*3 8.7 C 0 km/h
49 06-06-2009 09:43:20 8.7 C 7.87 g/m*3 8.7 C 0 km/h
50 06-06-2009 09:55:19 8.9 C 7.97 g/m*3 8.9 C 0 km/h
Sensor: Nr:Datum:Temp:Abs-Feuchte:Windchill:Wind:
Aussen-T/F 51 06-06-2009 10:07:19 9.1 C 7.99 g/m*3 9.1 C 0 km/h
52 06-06-2009 10:19:19 9.1 C 7.99 g/m*3 9.1 C 0 km/h
53 06-06-2009 10:31:19 8.9 C 7.97 g/m*3 8.9 C 0 km/h
54 06-06-2009 10:43:19 9 C 7.93 g/m*3 9 C 0 km/h
55 06-06-2009 10:55:18 9 C 7.93 g/m*3 9 C 0 km/h
56 06-06-2009 11:07:19 9 C 7.93 g/m*3 9 C 0 km/h
57 06-06-2009 11:19:18 9 C 7.93 g/m*3 9 C 0 km/h
58 06-06-2009 11:31:18 9.2 C 8.13 g/m*3 9.2 C 0 km/h
59 06-06-2009 11:43:18 9.2 C 8.13 g/m*3 9.2 C 0 km/h
60 06-06-2009 11:55:18 9 C 8.02 g/m*3 9 C 0 km/h
61 06-06-2009 12:07:17 9.2 C 8.13 g/m*3 9.2 C 0 km/h
62 06-06-2009 12:19:18 9.4 C 8.32 g/m*3 9.4 C 0 km/h
63 06-06-2009 12:31:18 9.3 C 8.27 g/m*3 9.3 C 0 km/h
64 06-06-2009 12:43:18 9.3 C 8.27 g/m*3 9.3 C 0 km/h
65 06-06-2009 12:55:17 9.5 C 8.37 g/m*3 9.5 C 0 km/h
66 06-06-2009 13:07:18 9.6 C 8.43 g/m*3 9.6 C 0 km/h
67 06-06-2009 13:19:17 9.7 C 8.48 g/m*3 9.7 C 0 km/h
68 06-06-2009 13:31:17 9.7 C 8.57 g/m*3 9.7 C 0 km/h
69 06-06-2009 13:43:17 9.7 C 8.57 g/m*3 9.7 C 0 km/h
70 06-06-2009 13:55:17 9.6 C 8.52 g/m*3 9.6 C 0 km/h
71 06-06-2009 14:07:17 9.8 C 8.63 g/m*3 9.8 C 0 km/h
72 06-06-2009 14:19:16 9.8 C 8.63 g/m*3 9.8 C 0 km/h
73 06-06-2009 14:31:16 9.8 C 8.63 g/m*3 9.8 C 0 km/h
74 06-06-2009 14:43:16 9.6 C 8.43 g/m*3 9.6 C 0 km/h
75 06-06-2009 14:55:16 9.5 C 8.37 g/m*3 9.5 C 0 km/h
Sensor: Nr:Datum:Temp:Abs-Feuchte:Windchill:Wind:
Aussen-T/F 76 06-06-2009 15:07:16 9.5 C 8.37 g/m*3 9.5 C 0 km/h
77 06-06-2009 15:19:15 9.4 C 8.32 g/m*3 9.4 C 0 km/h
78 06-06-2009 15:31:16 9.5 C 8.37 g/m*3 9.5 C 0 km/h
79 06-06-2009 15:43:16 9.7 C 8.57 g/m*3 9.7 C 0 km/h
80 06-06-2009 15:55:15 9.8 C 8.63 g/m*3 9.8 C 0 km/h
81 06-06-2009 16:07:15 10.1 C 8.7 g/m*3 10.1 C 0 km/h
82 06-06-2009 16:19:16 10.1 C 8.7 g/m*3 10.1 C 0 km/h
83 06-06-2009 16:31:15 9.9 C 8.68 g/m*3 9.9 C 0 km/h
84 06-06-2009 16:43:15 10 C 8.64 g/m*3 10 C 0 km/h
85 06-06-2009 16:55:15 9.9 C 8.68 g/m*3 9.9 C 0 km/h
86 06-06-2009 17:07:15 9.9 C 8.59 g/m*3 9.9 C 0 km/h
87 06-06-2009 17:19:15 9.9 C 8.59 g/m*3 9.9 C 0 km/h
88 06-06-2009 17:31:14 10.1 C 8.61 g/m*3 10.1 C 0 km/h
89 06-06-2009 17:43:14 10.3 C 8.71 g/m*3 10.3 C 0 km/h
90 06-06-2009 17:55:15 10.4 C 8.67 g/m*3 10.4 C 0 km/h
91 06-06-2009 18:07:14 10.5 C 8.73 g/m*3 10.5 C 0 km/h
92 06-06-2009 18:19:14 10.9 C 8.95 g/m*3 10.9 C 0 km/h
93 06-06-2009 18:31:02 10.7 C 8.64 g/m*3 10.7 C 0 km/h
94 06-06-2009 18:43:02 10.8 C 8.7 g/m*3 10.8 C 0 km/h
95 06-06-2009 18:55:01 10.7 C 8.45 g/m*3 10.7 C 0 km/h
96 06-06-2009 19:07:02 10.8 C 8.5 g/m*3 10.8 C 0 km/h
97 06-06-2009 19:19:01 10.9 C 8.45 g/m*3 10.9 C 0 km/h
98 06-06-2009 19:31:01 11.1 C 8.56 g/m*3 11.1 C 0 km/h
99 06-06-2009 19:43:01 11 C 8.51 g/m*3 11 C 0 km/h
100 06-06-2009 19:55:01 10.9 C 8.65 g/m*3 10.9 C 0 km/h
Sensor: Nr:Datum:Temp:Abs-Feuchte:Windchill:Wind:
Aussen-T/F 101 06-06-2009 20:07:01 10.5 C 8.34 g/m*3 10.5 C 0 km/h
102 06-06-2009 20:19:00 10.4 C 8.29 g/m*3 10.4 C 0 km/h
103 06-06-2009 20:31:00 10.4 C 8.38 g/m*3 10.4 C 0 km/h
104 06-06-2009 20:43:00 10.4 C 8.38 g/m*3 10.4 C 0 km/h
105 06-06-2009 20:55:00 10.3 C 8.33 g/m*3 10.3 C 0 km/h
106 06-06-2009 21:07:00 10.3 C 8.43 g/m*3 10.3 C 0 km/h
107 06-06-2009 21:18:59 10.2 C 8.37 g/m*3 10.2 C 0 km/h
108 06-06-2009 21:31:00 10.2 C 8.37 g/m*3 10.2 C 0 km/h
109 06-06-2009 21:43:00 10.1 C 8.32 g/m*3 10.1 C 0 km/h
110 06-06-2009 21:55:59 9.8 C 8.26 g/m*3 9.8 C 0 km/h
111 06-06-2009 22:07:59 9.5 C 8.1 g/m*3 9.5 C 0 km/h
112 06-06-2009 22:19:00 9.4 C 8.14 g/m*3 9.4 C 0 km/h
113 06-06-2009 22:31:59 9.4 C 8.23 g/m*3 9.4 C 0 km/h
114 06-06-2009 22:43:59 9.5 C 8.28 g/m*3 9.5 C 0 km/h
115 06-06-2009 22:55:59 9.6 C 8.43 g/m*3 9.6 C 0 km/h
116 06-06-2009 23:07:59 9.5 C 8.37 g/m*3 9.5 C 0 km/h
117 06-06-2009 23:19:59 9.5 C 8.37 g/m*3 9.5 C 0 km/h
118 06-06-2009 23:31:58 9.2 C 8.13 g/m*3 9.2 C 0 km/h
119 06-06-2009 23:43:58 8.8 C 8.01 g/m*3 8.8 C 0 km/h
120 06-06-2009 23:55:59 8.5 C 7.85 g/m*3 8.5 C 0 km/h
121 07-06-2009 00:07:59 8.5 C 7.85 g/m*3 8.5 C 0 km/h
122 07-06-2009 00:19:59 8.3 C 7.75 g/m*3 8.3 C 0 km/h
123 07-06-2009 00:31:58 8.1 C 7.66 g/m*3 8.1 C 0 km/h
124 07-06-2009 00:43:58 7.9 C 7.64 g/m*3 7.9 C 0 km/h
125 07-06-2009 00:55:58 8 C 7.61 g/m*3 8 C 0 km/h
Sensor: Nr:Datum:Temp:Abs-Feuchte:Windchill:Wind:
Aussen-T/F 126 07-06-2009 01:07:57 8 C 7.69 g/m*3 8 C 0 km/h
127 07-06-2009 01:19:58 8 C 7.69 g/m*3 8 C 0 km/h
128 07-06-2009 01:31:58 7.9 C 7.72 g/m*3 7.9 C 0 km/h
129 07-06-2009 01:43:58 7.9 C 7.72 g/m*3 7.9 C 0 km/h
130 07-06-2009 01:55:57 8.1 C 7.74 g/m*3 8.1 C 0 km/h
131 07-06-2009 02:07:58 8.2 C 7.87 g/m*3 8.2 C 0 km/h
132 07-06-2009 02:19:57 8.4 C 7.97 g/m*3 8.4 C 0 km/h
133 07-06-2009 02:31:57 8.4 C 7.97 g/m*3 8.4 C 0 km/h
134 07-06-2009 02:43:57 8.4 C 7.97 g/m*3 8.4 C 0 km/h
135 07-06-2009 02:56:59 8.4 C 7.97 g/m*3 8.4 C 0 km/h
136 07-06-2009 03:08:59 8.5 C 8.11 g/m*3 8.5 C 0 km/h
137 07-06-2009 03:20:59 8.5 C 8.11 g/m*3 8.5 C 0 km/h
138 07-06-2009 03:32:58 8.5 C 8.11 g/m*3 8.5 C 0 km/h
139 07-06-2009 03:44:58 8.4 C 8.06 g/m*3 8.4 C 0 km/h
140 07-06-2009 03:56:58 8.4 C 8.06 g/m*3 8.4 C 0 km/h
141 07-06-2009 04:08:58 8.5 C 8.11 g/m*3 8.5 C 0 km/h
142 07-06-2009 04:20:58 8.5 C 8.11 g/m*3 8.5 C 0 km/h
143 07-06-2009 04:32:58 8.5 C 8.11 g/m*3 8.5 C 0 km/h
144 07-06-2009 04:44:57 8.5 C 8.11 g/m*3 8.5 C 0 km/h
145 07-06-2009 04:56:57 8.5 C 8.11 g/m*3 8.5 C 0 km/h
146 07-06-2009 05:08:58 8.6 C 8.16 g/m*3 8.6 C 0 km/h
147 07-06-2009 05:20:58 8.6 C 8.16 g/m*3 8.6 C 0 km/h
148 07-06-2009 05:32:57 8.6 C 8.16 g/m*3 8.6 C 0 km/h
149 07-06-2009 05:44:57 8.7 C 8.22 g/m*3 8.7 C 0 km/h
150 07-06-2009 05:56:57 8.8 C 8.27 g/m*3 8.8 C 0 km/h
Sensor: Nr:Datum:Temp:Abs-Feuchte:Windchill:Wind:
Aussen-T/F 151 07-06-2009 06:08:57 8.9 C 8.32 g/m*3 8.9 C 0 km/h
152 07-06-2009 06:20:57 9.1 C 8.34 g/m*3 9.1 C 0 km/h
153 07-06-2009 06:32:57 9.3 C 8.45 g/m*3 9.3 C 0 km/h
154 07-06-2009 06:44:57 9.5 C 8.56 g/m*3 9.5 C 0 km/h
155 07-06-2009 06:56:57 9.5 C 8.56 g/m*3 9.5 C 0 km/h
156 07-06-2009 07:08:57 9.6 C 8.61 g/m*3 9.6 C 0 km/h
157 07-06-2009 07:20:56 10 C 8.74 g/m*3 10 C 0 km/h
158 07-06-2009 07:32:57 10.2 C 8.76 g/m*3 10.2 C 0 km/h
159 07-06-2009 07:44:01 10.3 C 8.43 g/m*3 10.3 C 0 km/h
160 07-06-2009 07:56:01 10.7 C 8.45 g/m*3 10.7 C 0 km/h
161 07-06-2009 08:08:01 11 C 8.01 g/m*3 11 C 0 km/h
162 07-06-2009 08:20:01 11.4 C 8.01 g/m*3 11.4 C 0 km/h
163 07-06-2009 08:32:01 11.7 C 7.84 g/m*3 11.7 C 0 km/h
164 07-06-2009 08:44:01 11.9 C 7.52 g/m*3 11.9 C 0 km/h
165 07-06-2009 08:56:01 12.4 C 7.32 g/m*3 12.4 C 0 km/h
166 07-06-2009 09:08:01 13.1 C 7.42 g/m*3 13.1 C 0 km/h
167 07-06-2009 09:20:01 13.6 C 7.3 g/m*3 13.6 C 0 km/h
168 07-06-2009 09:32:00 14 C 7.48 g/m*3 14 C 0 km/h
169 07-06-2009 09:44:00 14.1 C 7.52 g/m*3 14.1 C 0 km/h
170 07-06-2009 09:56:00 14.3 C 7.62 g/m*3 14.3 C 0 km/h
171 07-06-2009 10:08:00 14.4 C 7.42 g/m*3 14.4 C 0 km/h
172 07-06-2009 10:20:59 14.9 C 7.77 g/m*3 14.9 C 0 km/h
173 07-06-2009 10:32:00 15.5 C 7.93 g/m*3 15.5 C 0 km/h
174 07-06-2009 10:44:00 15.9 C 7.72 g/m*3 15.9 C 0 km/h
175 07-06-2009 10:56:59 16.4 C 7.54 g/m*3 16.4 C 0 km/h
Sensor: Nr:Datum:Temp:Abs-Feuchte:Windchill:Wind:
Aussen-T/F 176 07-06-2009 11:08:59 16.9 C 7.91 g/m*3 16.9 C 0 km/h
177 07-06-2009 11:20:00 17.2 C 7.91 g/m*3 17.2 C 0 km/h
178 07-06-2009 11:32:59 17 C 7.81 g/m*3 17 C 0 km/h
179 07-06-2009 11:44:59 16.1 C 7.81 g/m*3 16.1 C 0 km/h
180 07-06-2009 11:56:59 17.5 C 7.9 g/m*3 17.5 C 0 km/h
181 07-06-2009 12:08:59 17.1 C 7.42 g/m*3 17.1 C 0 km/h
182 07-06-2009 12:20:59 17.7 C 7.69 g/m*3 17.7 C 0 km/h
183 07-06-2009 12:32:59 17.3 C 7.81 g/m*3 17.3 C 0 km/h
184 07-06-2009 12:44:58 17.1 C 8.3 g/m*3 17.1 C 0 km/h
185 07-06-2009 12:56:58 16.8 C 8.86 g/m*3 16.8 C 0 km/h
186 07-06-2009 13:08:59 16.6 C 8.48 g/m*3 16.6 C 0 km/h
187 07-06-2009 13:20:59 16.4 C 8.79 g/m*3 16.4 C 0 km/h
188 07-06-2009 13:32:59 17.4 C 8.89 g/m*3 17.4 C 0 km/h
189 07-06-2009 13:44:58 19.3 C 8.13 g/m*3 19.3 C 0 km/h
190 07-06-2009 13:56:58 19.2 C 7.91 g/m*3 19.2 C 0 km/h
191 07-06-2009 14:08:57 19.4 C 8.34 g/m*3 19.4 C 0 km/h
192 07-06-2009 14:20:58 18.9 C 8.26 g/m*3 18.9 C 0 km/h
193 07-06-2009 14:32:58 18.9 C 8.42 g/m*3 18.9 C 0 km/h
194 07-06-2009 14:44:57 18.7 C 8.65 g/m*3 18.7 C 0 km/h
195 07-06-2009 14:56:57 19.1 C 8.69 g/m*3 19.1 C 0 km/h
196 07-06-2009 15:08:58 19.1 C 8.36 g/m*3 19.1 C 0 km/h
197 07-06-2009 15:20:57 17.3 C 8.99 g/m*3 17.3 C 0 km/h
198 07-06-2009 15:32:58 16 C 10.22 g/m*3 16 C 0 km/h
199 07-06-2009 15:44:57 15.5 C 10.31 g/m*3 15.5 C 0 km/h
200 07-06-2009 15:56:57 15.1 C 10.45 g/m*3 15.1 C 0 km/h
Sensor: Nr:Datum:Temp:Abs-Feuchte:Windchill:Wind:
Aussen-T/F 201 07-06-2009 16:08:57 14.8 C 10.64 g/m*3 14.8 C 0 km/h
202 07-06-2009 16:20:56 15.6 C 11.57 g/m*3 15.6 C 0 km/h
203 07-06-2009 16:32:57 16 C 11.72 g/m*3 16 C 0 km/h
204 07-06-2009 16:44:56 16.3 C 11.52 g/m*3 16.3 C 0 km/h
205 07-06-2009 16:56:56 17.2 C 11.57 g/m*3 17.2 C 0 km/h
206 07-06-2009 17:08:56 17.6 C 10.8 g/m*3 17.6 C 0 km/h
207 07-06-2009 17:20:56 18.9 C 10.85 g/m*3 18.9 C 0 km/h
208 07-06-2009 17:32:56 19.5 C 10.07 g/m*3 19.5 C 0 km/h
209 07-06-2009 17:44:56 18.4 C 9.75 g/m*3 18.4 C 0 km/h
210 07-06-2009 17:56:56 18.3 C 9.85 g/m*3 18.3 C 0 km/h
211 07-06-2009 18:08:55 18.8 C 9.34 g/m*3 18.8 C 0 km/h
212 07-06-2009 18:20:56 17.3 C 7.51 g/m*3 17.3 C 0 km/h
213 07-06-2009 18:32:55 17 C 8.54 g/m*3 17 C 0 km/h
214 07-06-2009 18:44:55 18 C 8.29 g/m*3 18 C 0 km/h
215 07-06-2009 18:56:55 19.2 C 7.75 g/m*3 19.2 C 0 km/h
216 07-06-2009 19:08:55 20.4 C 7.61 g/m*3 20.4 C 0 km/h
217 07-06-2009 19:20:55 20.4 C 7.25 g/m*3 20.4 C 0 km/h
218 07-06-2009 19:32:55 20.3 C 7.03 g/m*3 20.3 C 0 km/h
219 07-06-2009 19:44:55 19.8 C 7.34 g/m*3 19.8 C 0 km/h
220 07-06-2009 19:56:55 20.3 C 7.39 g/m*3 20.3 C 0 km/h
221 07-06-2009 20:08:54 20.3 C 7.39 g/m*3 20.3 C 0 km/h
222 07-06-2009 20:20:55 20 C 7.09 g/m*3 20 C 0 km/h
223 07-06-2009 20:32:54 18.7 C 6.88 g/m*3 18.7 C 0 km/h
224 07-06-2009 20:44:54 17.6 C 7.05 g/m*3 17.6 C 0 km/h
225 07-06-2009 20:56:55 16.6 C 7.06 g/m*3 16.6 C 0 km/h
Sensor: Nr:Datum:Temp:Abs-Feuchte:Windchill:Wind:
Aussen-T/F 226 07-06-2009 21:08:53 16.1 C 6.99 g/m*3 16.1 C 0 km/h
227 07-06-2009 21:20:54 15.8 C 7.54 g/m*3 15.8 C 0 km/h
228 07-06-2009 21:32:54 15.2 C 7.79 g/m*3 15.2 C 0 km/h
229 07-06-2009 21:44:53 14.7 C 7.93 g/m*3 14.7 C 0 km/h
230 07-06-2009 21:56:53 14.1 C 7.77 g/m*3 14.1 C 0 km/h
231 07-06-2009 22:09:55 13.5 C 7.37 g/m*3 13.5 C 0 km/h
232 07-06-2009 22:21:55 13 C 7.03 g/m*3 13 C 0 km/h
233 07-06-2009 22:33:55 12.7 C 7.01 g/m*3 12.7 C 0 km/h
234 07-06-2009 22:45:55 12.5 C 6.93 g/m*3 12.5 C 0 km/h
235 07-06-2009 22:57:55 12.3 C 6.84 g/m*3 12.3 C 0 km/h
236 07-06-2009 23:09:55 12 C 6.71 g/m*3 12 C 0 km/h
237 07-06-2009 23:21:55 11.8 C 6.84 g/m*3 11.8 C 0 km/h
238 07-06-2009 23:33:55 11.6 C 6.96 g/m*3 11.6 C 0 km/h
239 07-06-2009 23:45:55 11.5 C 7.02 g/m*3 11.5 C 0 km/h
240 07-06-2009 23:57:55 11.3 C 7.04 g/m*3 11.3 C 0 km/h
241 08-06-2009 00:09:55 11.2 C 7.1 g/m*3 11.2 C 0 km/h
242 08-06-2009 00:21:55 11.3 C 7.14 g/m*3 11.3 C 0 km/h
243 08-06-2009 00:33:55 10.8 C 7.12 g/m*3 10.8 C 0 km/h
244 08-06-2009 00:45:55 10.6 C 7.22 g/m*3 10.6 C 0 km/h
245 08-06-2009 00:57:56 10.7 C 7.17 g/m*3 10.7 C 0 km/h
246 08-06-2009 01:09:56 10.7 C 7.07 g/m*3 10.7 C 0 km/h
247 08-06-2009 01:21:56 10.4 C 7.04 g/m*3 10.4 C 0 km/h
248 08-06-2009 01:33:56 10.1 C 7.09 g/m*3 10.1 C 0 km/h
249 08-06-2009 01:45:56 10.2 C 6.95 g/m*3 10.2 C 0 km/h
250 08-06-2009 01:57:56 10.6 C 6.83 g/m*3 10.6 C 0 km/h
Sensor: Nr:Datum:Temp:Abs-Feuchte:Windchill:Wind:
Aussen-T/F 251 08-06-2009 02:09:56 11.4 C 6.57 g/m*3 11.4 C 0 km/h
252 08-06-2009 02:21:56 11.7 C 6.69 g/m*3 11.7 C 0 km/h
253 08-06-2009 02:33:56 11.6 C 6.76 g/m*3 11.6 C 0 km/h
254 08-06-2009 02:45:56 11.6 C 6.76 g/m*3 11.6 C 0 km/h
255 08-06-2009 02:57:56 11.8 C 6.84 g/m*3 11.8 C 0 km/h
256 08-06-2009 03:09:56 11 C 7.41 g/m*3 11 C 0 km/h
257 08-06-2009 03:21:56 10.9 C 7.76 g/m*3 10.9 C 0 km/h
258 08-06-2009 03:33:56 11.2 C 7.8 g/m*3 11.2 C 0 km/h
259 08-06-2009 03:45:56 11.1 C 7.66 g/m*3 11.1 C 0 km/h
260 08-06-2009 03:57:56 11 C 7.61 g/m*3 11 C 0 km/h
261 08-06-2009 04:09:56 11.1 C 7.76 g/m*3 11.1 C 0 km/h
262 08-06-2009 04:21:56 11.1 C 7.76 g/m*3 11.1 C 0 km/h
263 08-06-2009 04:33:56 11.1 C 7.76 g/m*3 11.1 C 0 km/h
264 08-06-2009 04:45:56 11.1 C 7.76 g/m*3 11.1 C 0 km/h
265 08-06-2009 04:57:57 11.1 C 7.86 g/m*3 11.1 C 0 km/h
266 08-06-2009 05:09:57 11.2 C 7.91 g/m*3 11.2 C 0 km/h
267 08-06-2009 05:21:57 11.2 C 7.8 g/m*3 11.2 C 0 km/h
268 08-06-2009 05:33:57 11.2 C 7.91 g/m*3 11.2 C 0 km/h
269 08-06-2009 05:45:57 11.3 C 7.96 g/m*3 11.3 C 0 km/h
270 08-06-2009 05:57:57 11.5 C 7.75 g/m*3 11.5 C 0 km/h
271 08-06-2009 06:09:57 11.5 C 7.85 g/m*3 11.5 C 0 km/h
272 08-06-2009 06:21:57 11.5 C 7.85 g/m*3 11.5 C 0 km/h
273 08-06-2009 06:33:57 11.5 C 7.85 g/m*3 11.5 C 0 km/h
274 08-06-2009 06:45:55 11.5 C 8.06 g/m*3 11.5 C 0 km/h
275 08-06-2009 06:57:55 11.5 C 7.95 g/m*3 11.5 C 0 km/h
Sensor: Nr:Datum:Temp:Abs-Feuchte:Windchill:Wind:
Aussen-T/F 276 08-06-2009 07:09:54 11.8 C 8 g/m*3 11.8 C 0 km/h
277 08-06-2009 07:21:54 12 C 7.99 g/m*3 12 C 0 km/h
278 08-06-2009 07:33:54 12.3 C 8.25 g/m*3 12.3 C 0 km/h
279 08-06-2009 07:45:54 12.2 C 7.99 g/m*3 12.2 C 0 km/h
280 08-06-2009 07:57:54 12.3 C 7.82 g/m*3 12.3 C 0 km/h
281 08-06-2009 08:09:53 12.5 C 7.7 g/m*3 12.5 C 0 km/h
282 08-06-2009 08:21:54 12.7 C 7.57 g/m*3 12.7 C 0 km/h
283 08-06-2009 08:33:54 12.9 C 7.33 g/m*3 12.9 C 0 km/h
284 08-06-2009 08:45:53 13.2 C 7.46 g/m*3 13.2 C 0 km/h
285 08-06-2009 08:57:53 13.5 C 7.37 g/m*3 13.5 C 0 km/h
286 08-06-2009 09:09:53 13.8 C 7.15 g/m*3 13.8 C 0 km/h
287 08-06-2009 09:21:53 14.1 C 7.04 g/m*3 14.1 C 0 km/h
288 08-06-2009 09:33:53 14.6 C 6.88 g/m*3 14.6 C 0 km/h
289 08-06-2009 09:45:53 14.8 C 6.84 g/m*3 14.8 C 0 km/h
290 08-06-2009 09:57:53 15 C 6.67 g/m*3 15 C 0 km/h
291 08-06-2009 10:09:53 15.6 C 6.78 g/m*3 15.6 C 0 km/h
292 08-06-2009 10:21:52 15.9 C 6.37 g/m*3 15.9 C 0 km/h
293 08-06-2009 10:33:52 16.4 C 6.42 g/m*3 16.4 C 0 km/h
294 08-06-2009 10:45:52 16.5 C 6.18 g/m*3 16.5 C 0 km/h
295 08-06-2009 10:57:52 16.6 C 6.07 g/m*3 16.6 C 0 km/h
296 08-06-2009 11:09:52 17.7 C 6.49 g/m*3 17.7 C 0 km/h
297 08-06-2009 11:21:51 17.3 C 5.75 g/m*3 17.3 C 0 km/h
298 08-06-2009 11:33:52 17 C 6.08 g/m*3 17 C 0 km/h
299 08-06-2009 11:45:51 17.6 C 6.15 g/m*3 17.6 C 0 km/h
300 08-06-2009 11:57:51 18.1 C 6.03 g/m*3 18.1 C 0 km/h
Sensor: Nr:Datum:Temp:Abs-Feuchte:Windchill:Wind:
Aussen-T/F 301 08-06-2009 12:09:52 17.6 C 6 g/m*3 17.6 C 0 km/h
302 08-06-2009 12:21:51 20 C 6.22 g/m*3 20 C 0 km/h
303 08-06-2009 12:33:51 18.6 C 5.89 g/m*3 18.6 C 0 km/h
304 08-06-2009 12:45:51 20.2 C 6.12 g/m*3 20.2 C 0 km/h
305 08-06-2009 12:57:51 19.6 C 5.74 g/m*3 19.6 C 0 km/h
306 08-06-2009 13:09:51 21.6 C 4.74 g/m*3 21.6 C 0 km/h
307 08-06-2009 13:21:50 21.5 C 5.47 g/m*3 21.5 C 0 km/h
308 08-06-2009 13:33:51 20.9 C 5.1 g/m*3 20.9 C 0 km/h
309 08-06-2009 13:45:51 20.3 C 5.28 g/m*3 20.3 C 0 km/h
310 08-06-2009 13:57:51 21.4 C 5.06 g/m*3 21.4 C 0 km/h
311 08-06-2009 14:09:50 21.7 C 4.39 g/m*3 21.7 C 0 km/h
312 08-06-2009 14:21:50 21.5 C 4.71 g/m*3 21.5 C 0 km/h
313 08-06-2009 14:33:50 21.9 C 5.02 g/m*3 21.9 C 0 km/h
314 08-06-2009 14:45:50 21.7 C 4.96 g/m*3 21.7 C 0 km/h
315 08-06-2009 14:57:50 22.1 C 4.88 g/m*3 22.1 C 0 km/h
316 08-06-2009 15:09:49 22.9 C 5.11 g/m*3 22.9 C 0 km/h
317 08-06-2009 15:21:50 23 C 4.32 g/m*3 23 C 0 km/h
318 08-06-2009 15:33:50 22.7 C 4.24 g/m*3 22.7 C 0 km/h
319 08-06-2009 15:45:49 23.8 C 4.73 g/m*3 23.8 C 0 km/h
320 08-06-2009 15:57:49 23.3 C 4.39 g/m*3 23.3 C 0 km/h
321 08-06-2009 16:09:50 23.7 C 4.49 g/m*3 23.7 C 0 km/h
322 08-06-2009 16:21:49 24.7 C 4.53 g/m*3 24.7 C 0 km/h
323 08-06-2009 16:33:49 23.5 C 4.65 g/m*3 23.5 C 0 km/h
324 08-06-2009 16:45:49 23.2 C 4.57 g/m*3 23.2 C 0 km/h
325 08-06-2009 16:57:49 23.9 C 4.76 g/m*3 23.9 C 0 km/h
Sensor: Nr:Datum:Temp:Abs-Feuchte:Windchill:Wind:
Aussen-T/F 326 08-06-2009 17:09:49 23.8 C 4.73 g/m*3 23.8 C 0 km/h
327 08-06-2009 17:21:48 24.4 C 4.9 g/m*3 24.4 C 0 km/h
328 08-06-2009 17:33:48 24.3 C 5.09 g/m*3 24.3 C 0 km/h
329 08-06-2009 17:45:48 25.1 C 4.86 g/m*3 25.1 C 0 km/h
330 08-06-2009 17:57:48 24.1 C 4.81 g/m*3 24.1 C 0 km/h
331 08-06-2009 18:09:48 23.9 C 5.41 g/m*3 23.9 C 0 km/h
332 08-06-2009 18:21:48 23.7 C 5.99 g/m*3 23.7 C 0 km/h
333 08-06-2009 18:33:48 23.5 C 6.77 g/m*3 23.5 C 0 km/h
334 08-06-2009 18:45:48 22.8 C 7.32 g/m*3 22.8 C 0 km/h
335 08-06-2009 18:57:48 22.1 C 7.42 g/m*3 22.1 C 0 km/h
336 08-06-2009 19:09:47 21.6 C 7.59 g/m*3 21.6 C 0 km/h
337 08-06-2009 19:21:48 21 C 7.14 g/m*3 21 C 0 km/h
338 08-06-2009 19:33:47 20.8 C 7.6 g/m*3 20.8 C 0 km/h
339 08-06-2009 19:45:47 20.6 C 7.52 g/m*3 20.6 C 0 km/h
340 08-06-2009 19:57:48 20.4 C 7.61 g/m*3 20.4 C 0 km/h
341 08-06-2009 20:09:47 20.1 C 7.82 g/m*3 20.1 C 0 km/h
342 08-06-2009 20:21:47 19.8 C 8.03 g/m*3 19.8 C 0 km/h
343 08-06-2009 20:33:47 19.3 C 7.96 g/m*3 19.3 C 0 km/h
344 08-06-2009 20:45:47 18.8 C 8.05 g/m*3 18.8 C 0 km/h
345 08-06-2009 20:57:47 18.5 C 7.91 g/m*3 18.5 C 0 km/h
346 08-06-2009 21:09:47 18.2 C 7.77 g/m*3 18.2 C 0 km/h
347 08-06-2009 21:21:46 17.9 C 7.79 g/m*3 17.9 C 0 km/h
348 08-06-2009 21:33:46 17.6 C 8.1 g/m*3 17.6 C 0 km/h
349 08-06-2009 21:45:46 16.7 C 8.67 g/m*3 16.7 C 0 km/h
350 08-06-2009 21:57:46 16.6 C 8.9 g/m*3 16.6 C 0 km/h
Sensor: Nr:Datum:Temp:Abs-Feuchte:Windchill:Wind:
Aussen-T/F 351 08-06-2009 22:09:46 16.4 C 8.79 g/m*3 16.4 C 0 km/h
352 08-06-2009 22:21:46 16.6 C 8.76 g/m*3 16.6 C 0 km/h
353 08-06-2009 22:33:45 16.5 C 8.57 g/m*3 16.5 C 0 km/h
354 08-06-2009 22:46:46 16.4 C 8.51 g/m*3 16.4 C 0 km/h
355 08-06-2009 22:58:46 16.3 C 8.46 g/m*3 16.3 C 0 km/h
356 08-06-2009 23:10:46 16.4 C 8.51 g/m*3 16.4 C 0 km/h
357 08-06-2009 23:22:46 16.4 C 8.37 g/m*3 16.4 C 0 km/h
358 08-06-2009 23:34:46 16.5 C 8.43 g/m*3 16.5 C 0 km/h
359 08-06-2009 23:46:46 16.3 C 8.88 g/m*3 16.3 C 0 km/h
360 08-06-2009 23:58:46 16 C 8.99 g/m*3 16 C 0 km/h
361 09-06-2009 00:10:46 15.8 C 9.42 g/m*3 15.8 C 0 km/h
362 09-06-2009 00:22:46 15.4 C 9.59 g/m*3 15.4 C 0 km/h
363 09-06-2009 00:34:46 15.4 C 9.99 g/m*3 15.4 C 0 km/h
364 09-06-2009 00:46:46 15 C 10 g/m*3 15 C 0 km/h
365 09-06-2009 00:58:46 14.8 C 10.01 g/m*3 14.8 C 0 km/h
366 09-06-2009 01:10:46 14.6 C 10.14 g/m*3 14.6 C 0 km/h
367 09-06-2009 01:22:47 14.5 C 10.07 g/m*3 14.5 C 0 km/h
368 09-06-2009 01:34:47 14.6 C 10.26 g/m*3 14.6 C 0 km/h
369 09-06-2009 01:46:47 14.5 C 10.32 g/m*3 14.5 C 0 km/h
370 09-06-2009 01:58:47 14.6 C 10.26 g/m*3 14.6 C 0 km/h
371 09-06-2009 02:10:47 14.6 C 10.14 g/m*3 14.6 C 0 km/h
372 09-06-2009 02:22:47 14.7 C 10.2 g/m*3 14.7 C 0 km/h
373 09-06-2009 02:34:47 14.6 C 10.01 g/m*3 14.6 C 0 km/h
374 09-06-2009 02:46:47 14.3 C 9.95 g/m*3 14.3 C 0 km/h
375 09-06-2009 02:58:47 14.3 C 9.95 g/m*3 14.3 C 0 km/h
Sensor: Nr:Datum:Temp:Abs-Feuchte:Windchill:Wind:
Aussen-T/F 376 09-06-2009 03:10:47 14.4 C 10.01 g/m*3 14.4 C 0 km/h
377 09-06-2009 03:22:47 14.5 C 10.07 g/m*3 14.5 C 0 km/h
378 09-06-2009 03:34:47 14.5 C 10.07 g/m*3 14.5 C 0 km/h
379 09-06-2009 03:46:47 14.4 C 9.89 g/m*3 14.4 C 0 km/h
380 09-06-2009 03:58:47 14.4 C 9.89 g/m*3 14.4 C 0 km/h
381 09-06-2009 04:10:47 14.4 C 9.89 g/m*3 14.4 C 0 km/h
382 09-06-2009 04:22:47 14.4 C 10.01 g/m*3 14.4 C 0 km/h
383 09-06-2009 04:34:47 14.5 C 9.95 g/m*3 14.5 C 0 km/h
384 09-06-2009 04:46:47 14.6 C 9.89 g/m*3 14.6 C 0 km/h
385 09-06-2009 04:58:47 14.6 C 9.89 g/m*3 14.6 C 0 km/h
386 09-06-2009 05:10:48 14.5 C 9.83 g/m*3 14.5 C 0 km/h
387 09-06-2009 05:22:48 14.2 C 9.89 g/m*3 14.2 C 0 km/h
388 09-06-2009 05:34:48 14.1 C 10.07 g/m*3 14.1 C 0 km/h
389 09-06-2009 05:46:48 14 C 10.13 g/m*3 14 C 0 km/h
390 09-06-2009 05:58:48 14.1 C 10.32 g/m*3 14.1 C 0 km/h
391 09-06-2009 06:10:48 14 C 10.37 g/m*3 14 C 0 km/h
392 09-06-2009 06:22:48 14.1 C 10.56 g/m*3 14.1 C 0 km/h
393 09-06-2009 06:34:48 14.1 C 10.56 g/m*3 14.1 C 0 km/h
394 09-06-2009 06:46:48 14.1 C 10.56 g/m*3 14.1 C 0 km/h
395 09-06-2009 06:58:48 14.2 C 10.62 g/m*3 14.2 C 0 km/h
396 09-06-2009 07:10:48 14.3 C 10.44 g/m*3 14.3 C 0 km/h
397 09-06-2009 07:22:46 14.6 C 10.51 g/m*3 14.6 C 0 km/h
398 09-06-2009 07:34:01 14.8 C 10.64 g/m*3 14.8 C 0 km/h
399 09-06-2009 07:46:01 15 C 10.64 g/m*3 15 C 0 km/h
400 09-06-2009 07:58:01 15 C 10.26 g/m*3 15 C 0 km/h
Sensor: Nr:Datum:Temp:Abs-Feuchte:Windchill:Wind:
Aussen-T/F 401 09-06-2009 08:10:01 15.2 C 9.48 g/m*3 15.2 C 0 km/h
402 09-06-2009 08:22:01 15.2 C 9.22 g/m*3 15.2 C 0 km/h
403 09-06-2009 08:34:01 15.2 C 9.09 g/m*3 15.2 C 0 km/h
404 09-06-2009 08:46:01 15.3 C 9.53 g/m*3 15.3 C 0 km/h
405 09-06-2009 08:58:01 15.4 C 9.59 g/m*3 15.4 C 0 km/h
406 09-06-2009 09:10:00 15.4 C 9.59 g/m*3 15.4 C 0 km/h
407 09-06-2009 09:22:01 15.5 C 9.65 g/m*3 15.5 C 0 km/h
408 09-06-2009 09:34:00 15.9 C 9.48 g/m*3 15.9 C 0 km/h
409 09-06-2009 09:46:00 16.5 C 9.55 g/m*3 16.5 C 0 km/h
410 09-06-2009 09:58:01 16.8 C 8.86 g/m*3 16.8 C 0 km/h
411 09-06-2009 10:10:00 16.8 C 8.72 g/m*3 16.8 C 0 km/h
412 09-06-2009 10:22:00 16.9 C 8.63 g/m*3 16.9 C 0 km/h
413 09-06-2009 10:34:00 17.7 C 8.9 g/m*3 17.7 C 0 km/h
414 09-06-2009 10:45:59 18.1 C 8.34 g/m*3 18.1 C 0 km/h
415 09-06-2009 10:57:59 18.6 C 8.12 g/m*3 18.6 C 0 km/h
416 09-06-2009 11:10:00 18.5 C 7.91 g/m*3 18.5 C 0 km/h
417 09-06-2009 11:22:59 19.4 C 7.67 g/m*3 19.4 C 0 km/h
418 09-06-2009 11:34:59 20.1 C 7.47 g/m*3 20.1 C 0 km/h
419 09-06-2009 11:46:59 19.9 C 7.39 g/m*3 19.9 C 0 km/h
420 09-06-2009 11:58:59 20.8 C 7.06 g/m*3 20.8 C 0 km/h
421 09-06-2009 12:10:59 21.5 C 6.98 g/m*3 21.5 C 0 km/h
422 09-06-2009 12:22:59 21.9 C 7.14 g/m*3 21.9 C 0 km/h
423 09-06-2009 12:34:58 21.1 C 7 g/m*3 21.1 C 0 km/h
424 09-06-2009 12:46:59 22.5 C 6.99 g/m*3 22.5 C 0 km/h
425 09-06-2009 12:58:59 22.9 C 6.34 g/m*3 22.9 C 0 km/h
Sensor: Nr:Datum:Temp:Abs-Feuchte:Windchill:Wind:
Aussen-T/F 426 09-06-2009 13:10:58 23.3 C 6.48 g/m*3 23.3 C 0 km/h
427 09-06-2009 13:22:58 21.5 C 6.98 g/m*3 21.5 C 0 km/h
428 09-06-2009 13:34:58 21.5 C 6.79 g/m*3 21.5 C 0 km/h
429 09-06-2009 13:46:58 23.7 C 6.42 g/m*3 23.7 C 0 km/h
430 09-06-2009 13:58:59 22.3 C 6.52 g/m*3 22.3 C 0 km/h
431 09-06-2009 14:10:57 23.6 C 6.59 g/m*3 23.6 C 0 km/h
432 09-06-2009 14:22:57 24.2 C 6.6 g/m*3 24.2 C 0 km/h
433 09-06-2009 14:34:58 24.9 C 6.64 g/m*3 24.9 C 0 km/h
434 09-06-2009 14:46:01 23.8 C 6.67 g/m*3 23.8 C 0 km/h
435 09-06-2009 14:58:01 21.6 C 7.78 g/m*3 21.6 C 0 km/h
436 09-06-2009 15:10:01 19.3 C 8.63 g/m*3 19.3 C 0 km/h
437 09-06-2009 15:22:01 19.9 C 11.51 g/m*3 19.9 C 0 km/h
438 09-06-2009 15:34:01 21.9 C 10.81 g/m*3 21.9 C 0 km/h
439 09-06-2009 15:46:01 23.2 C 9.36 g/m*3 23.2 C 0 km/h
440 09-06-2009 15:58:01 21.7 C 10.49 g/m*3 21.7 C 0 km/h
441 09-06-2009 16:10:01 22.3 C 9.08 g/m*3 22.3 C 0 km/h
442 09-06-2009 16:22:00 23.9 C 8.22 g/m*3 23.9 C 0 km/h
443 09-06-2009 16:34:00 24.5 C 7.16 g/m*3 24.5 C 0 km/h
444 09-06-2009 16:46:00 24.8 C 6.83 g/m*3 24.8 C 0 km/h
445 09-06-2009 16:58:00 24.9 C 7.1 g/m*3 24.9 C 0 km/h
446 09-06-2009 17:10:00 26.1 C 7.1 g/m*3 26.1 C 0 km/h
447 09-06-2009 17:22:59 25.5 C 7.34 g/m*3 25.5 C 0 km/h
448 09-06-2009 17:34:00 25.3 C 7.02 g/m*3 25.3 C 0 km/h
449 09-06-2009 17:46:00 25.4 C 7.06 g/m*3 25.4 C 0 km/h
450 09-06-2009 17:58:00 24.4 C 7.12 g/m*3 24.4 C 0 km/h
Sensor: Nr:Datum:Temp:Abs-Feuchte:Windchill:Wind:
Aussen-T/F 451 09-06-2009 18:10:59 23.3 C 7.53 g/m*3 23.3 C 0 km/h
452 09-06-2009 18:22:00 21.9 C 7.72 g/m*3 21.9 C 0 km/h
453 09-06-2009 18:34:59 20 C 7.09 g/m*3 20 C 0 km/h
454 09-06-2009 18:46:59 19.2 C 7.42 g/m*3 19.2 C 0 km/h
455 09-06-2009 18:58:59 20.5 C 7.83 g/m*3 20.5 C 0 km/h
456 09-06-2009 19:10:59 20.4 C 7.61 g/m*3 20.4 C 0 km/h
457 09-06-2009 19:22:59 19.9 C 7.9 g/m*3 19.9 C 0 km/h
458 09-06-2009 19:34:59 19.7 C 8.15 g/m*3 19.7 C 0 km/h
459 09-06-2009 19:46:58 17.5 C 8.95 g/m*3 17.5 C 0 km/h
460 09-06-2009 19:58:58 16.5 C 10.11 g/m*3 16.5 C 0 km/h
461 09-06-2009 20:10:59 17.9 C 10.08 g/m*3 17.9 C 0 km/h
462 09-06-2009 20:22:58 18.9 C 9.4 g/m*3 18.9 C 0 km/h
463 09-06-2009 20:34:58 19.7 C 9 g/m*3 19.7 C 0 km/h
464 09-06-2009 20:46:58 19.3 C 8.96 g/m*3 19.3 C 0 km/h
465 09-06-2009 20:58:58 18.8 C 8.54 g/m*3 18.8 C 0 km/h
466 09-06-2009 21:10:58 18.4 C 8.81 g/m*3 18.4 C 0 km/h
467 09-06-2009 21:22:57 17.9 C 9.47 g/m*3 17.9 C 0 km/h
468 09-06-2009 21:34:58 17.2 C 8.93 g/m*3 17.2 C 0 km/h
469 09-06-2009 21:46:57 16.7 C 9.1 g/m*3 16.7 C 0 km/h
470 09-06-2009 21:58:57 16.3 C 9.16 g/m*3 16.3 C 0 km/h
471 09-06-2009 22:10:57 16 C 9.26 g/m*3 16 C 0 km/h
472 09-06-2009 22:23:58 15.7 C 9.37 g/m*3 15.7 C 0 km/h
473 09-06-2009 22:35:58 15.6 C 9.44 g/m*3 15.6 C 0 km/h
474 09-06-2009 22:47:58 15.8 C 9.29 g/m*3 15.8 C 0 km/h
475 09-06-2009 22:59:58 15.6 C 9.18 g/m*3 15.6 C 0 km/h
Sensor: Nr:Datum:Temp:Abs-Feuchte:Windchill:Wind:
Aussen-T/F 476 09-06-2009 23:11:58 15.4 C 9.33 g/m*3 15.4 C 0 km/h
477 09-06-2009 23:23:58 15.2 C 9.35 g/m*3 15.2 C 0 km/h
478 09-06-2009 23:35:58 15 C 9.23 g/m*3 15 C 0 km/h
479 09-06-2009 23:47:58 14.5 C 9.2 g/m*3 14.5 C 0 km/h
480 09-06-2009 23:59:58 14.4 C 9.27 g/m*3 14.4 C 0 km/h
481 10-06-2009 00:11:58 14.4 C 9.39 g/m*3 14.4 C 0 km/h
482 10-06-2009 00:23:58 14 C 9.05 g/m*3 14 C 0 km/h
483 10-06-2009 00:35:59 14 C 9.17 g/m*3 14 C 0 km/h
484 10-06-2009 00:47:59 13.8 C 9.29 g/m*3 13.8 C 0 km/h
485 10-06-2009 00:59:59 13.8 C 9.29 g/m*3 13.8 C 0 km/h
486 10-06-2009 01:11:59 14 C 9.29 g/m*3 14 C 0 km/h
487 10-06-2009 01:23:59 14.4 C 9.39 g/m*3 14.4 C 0 km/h
488 10-06-2009 01:35:59 14.9 C 9.3 g/m*3 14.9 C 0 km/h
489 10-06-2009 01:47:59 15.4 C 8.93 g/m*3 15.4 C 0 km/h
490 10-06-2009 01:59:59 15.6 C 8.91 g/m*3 15.6 C 0 km/h
491 10-06-2009 02:11:59 15.4 C 8.8 g/m*3 15.4 C 0 km/h
492 10-06-2009 02:23:59 15.4 C 8.8 g/m*3 15.4 C 0 km/h
493 10-06-2009 02:35:59 15.5 C 8.86 g/m*3 15.5 C 0 km/h
494 10-06-2009 02:47:59 15.4 C 8.8 g/m*3 15.4 C 0 km/h
495 10-06-2009 02:59:59 15.1 C 8.77 g/m*3 15.1 C 0 km/h
496 10-06-2009 03:11:59 14.9 C 9.05 g/m*3 14.9 C 0 km/h
497 10-06-2009 03:23:59 15 C 8.98 g/m*3 15 C 0 km/h
498 10-06-2009 03:35:59 14.8 C 8.99 g/m*3 14.8 C 0 km/h
499 10-06-2009 03:47:59 14.8 C 9.12 g/m*3 14.8 C 0 km/h
500 10-06-2009 03:58:59 14.7 C 9.07 g/m*3 14.7 C 0 km/h
Sensor: Nr:Datum:Temp:Abs-Feuchte:Windchill:Wind:
Aussen-T/F 501 10-06-2009 04:10:59 14.5 C 8.95 g/m*3 14.5 C 0 km/h
502 10-06-2009 04:22:59 14.4 C 9.02 g/m*3 14.4 C 0 km/h
503 10-06-2009 04:35:00 14.4 C 9.02 g/m*3 14.4 C 0 km/h
504 10-06-2009 04:47:00 14.6 C 9.13 g/m*3 14.6 C 0 km/h
505 10-06-2009 04:59:00 14.4 C 9.02 g/m*3 14.4 C 0 km/h
506 10-06-2009 05:11:00 14.4 C 9.15 g/m*3 14.4 C 0 km/h
507 10-06-2009 05:23:00 14.4 C 9.27 g/m*3 14.4 C 0 km/h
508 10-06-2009 05:35:00 14.4 C 9.27 g/m*3 14.4 C 0 km/h
509 10-06-2009 05:47:00 14.4 C 9.27 g/m*3 14.4 C 0 km/h
510 10-06-2009 05:59:00 14.5 C 9.2 g/m*3 14.5 C 0 km/h
511 10-06-2009 06:11:00 14.4 C 9.15 g/m*3 14.4 C 0 km/h
512 10-06-2009 06:23:00 14.5 C 9.2 g/m*3 14.5 C 0 km/h
513 10-06-2009 06:35:00 14.8 C 9.37 g/m*3 14.8 C 0 km/h
514 10-06-2009 06:47:00 14.9 C 9.3 g/m*3 14.9 C 0 km/h
515 10-06-2009 06:59:00 15.1 C 9.16 g/m*3 15.1 C 0 km/h
516 10-06-2009 07:11:59 15.2 C 9.09 g/m*3 15.2 C 0 km/h
517 10-06-2009 07:23:58 15.4 C 9.2 g/m*3 15.4 C 0 km/h
518 10-06-2009 07:35:58 15.6 C 9.18 g/m*3 15.6 C 0 km/h
519 10-06-2009 07:47:58 15.8 C 9.29 g/m*3 15.8 C 0 km/h
520 10-06-2009 07:59:58 16.1 C 9.18 g/m*3 16.1 C 0 km/h
521 10-06-2009 08:11:58 16.2 C 8.96 g/m*3 16.2 C 0 km/h
522 10-06-2009 08:23:57 16.5 C 9.13 g/m*3 16.5 C 0 km/h
523 10-06-2009 08:35:58 16.7 C 9.1 g/m*3 16.7 C 0 km/h
524 10-06-2009 08:47:57 16.8 C 9.15 g/m*3 16.8 C 0 km/h
525 10-06-2009 08:59:57 16.7 C 9.1 g/m*3 16.7 C 0 km/h
Sensor: Nr:Datum:Temp:Abs-Feuchte:Windchill:Wind:
Aussen-T/F 526 10-06-2009 09:11:57 17.1 C 8.88 g/m*3 17.1 C 0 km/h
527 10-06-2009 09:23:58 16.9 C 8.92 g/m*3 16.9 C 0 km/h
528 10-06-2009 09:35:57 16.5 C 9.13 g/m*3 16.5 C 0 km/h
529 10-06-2009 09:47:57 15.6 C 9.58 g/m*3 15.6 C 0 km/h
530 10-06-2009 09:59:57 15.2 C 9.73 g/m*3 15.2 C 0 km/h
531 10-06-2009 10:11:56 14.9 C 10.07 g/m*3 14.9 C 0 km/h
532 10-06-2009 10:23:57 14.6 C 10.01 g/m*3 14.6 C 0 km/h
533 10-06-2009 10:35:56 15 C 10.39 g/m*3 15 C 0 km/h
534 10-06-2009 10:47:56 15.3 C 10.45 g/m*3 15.3 C 0 km/h
535 10-06-2009 10:59:57 15.7 C 10.3 g/m*3 15.7 C 0 km/h
536 10-06-2009 11:11:56 16.2 C 10.2 g/m*3 16.2 C 0 km/h
537 10-06-2009 11:23:56 16.9 C 10.36 g/m*3 16.9 C 0 km/h
538 10-06-2009 11:35:56 17.3 C 10.02 g/m*3 17.3 C 0 km/h
539 10-06-2009 11:47:56 18.3 C 9.85 g/m*3 18.3 C 0 km/h
540 10-06-2009 11:59:56 18.4 C 9.75 g/m*3 18.4 C 0 km/h
541 10-06-2009 12:11:56 19 C 9.45 g/m*3 19 C 0 km/h
542 10-06-2009 12:23:55 19.9 C 8.93 g/m*3 19.9 C 0 km/h
543 10-06-2009 12:35:55 20.1 C 8.17 g/m*3 20.1 C 0 km/h
544 10-06-2009 12:47:55 20.3 C 7.91 g/m*3 20.3 C 0 km/h
545 10-06-2009 12:59:55 19.4 C 7.84 g/m*3 19.4 C 0 km/h
546 10-06-2009 13:11:55 19.5 C 8.22 g/m*3 19.5 C 0 km/h
547 10-06-2009 13:23:55 22.8 C 7.72 g/m*3 22.8 C 0 km/h
548 10-06-2009 13:35:55 23.4 C 7.36 g/m*3 23.4 C 0 km/h
549 10-06-2009 13:47:55 21.6 C 6.45 g/m*3 21.6 C 0 km/h
550 10-06-2009 13:59:55 22.7 C 6.67 g/m*3 22.7 C 0 km/h
Sensor: Nr:Datum:Temp:Abs-Feuchte:Windchill:Wind:
Aussen-T/F 551 10-06-2009 14:11:54 22.1 C 6.64 g/m*3 22.1 C 0 km/h
552 10-06-2009 14:23:54 22 C 6.21 g/m*3 22 C 0 km/h
553 10-06-2009 14:35:54 22 C 6.6 g/m*3 22 C 0 km/h
554 10-06-2009 14:47:54 22.3 C 6.32 g/m*3 22.3 C 0 km/h
555 10-06-2009 14:59:55 22.6 C 6.43 g/m*3 22.6 C 0 km/h
556 10-06-2009 15:11:53 22.5 C 5.79 g/m*3 22.5 C 0 km/h
557 10-06-2009 15:23:54 23.5 C 6.13 g/m*3 23.5 C 0 km/h
558 10-06-2009 15:35:54 23.4 C 5.68 g/m*3 23.4 C 0 km/h
559 10-06-2009 15:47:53 23.3 C 5.44 g/m*3 23.3 C 0 km/h
560 10-06-2009 15:59:53 23.5 C 5.5 g/m*3 23.5 C 0 km/h
561 10-06-2009 16:11:54 23.4 C 4.84 g/m*3 23.4 C 0 km/h
562 10-06-2009 16:23:53 22.8 C 5.08 g/m*3 22.8 C 0 km/h
563 10-06-2009 16:35:53 23.1 C 5.17 g/m*3 23.1 C 0 km/h
564 10-06-2009 16:47:53 24.1 C 5.47 g/m*3 24.1 C 0 km/h
565 10-06-2009 16:59:53 23.2 C 5.2 g/m*3 23.2 C 0 km/h
566 10-06-2009 17:11:53 23.2 C 4.57 g/m*3 23.2 C 0 km/h
567 10-06-2009 17:23:53 23.8 C 4.95 g/m*3 23.8 C 0 km/h
568 10-06-2009 17:35:52 22.2 C 4.91 g/m*3 22.2 C 0 km/h
569 10-06-2009 17:47:53 22.3 C 5.13 g/m*3 22.3 C 0 km/h
570 10-06-2009 17:59:53 21.9 C 5.21 g/m*3 21.9 C 0 km/h
571 10-06-2009 18:11:52 21.5 C 5.47 g/m*3 21.5 C 0 km/h
572 10-06-2009 18:23:52 19.4 C 7.51 g/m*3 19.4 C 0 km/h
573 10-06-2009 18:35:52 17.7 C 9.05 g/m*3 17.7 C 0 km/h
574 10-06-2009 18:47:52 18.5 C 9.02 g/m*3 18.5 C 0 km/h
575 10-06-2009 18:59:53 18.7 C 8.97 g/m*3 18.7 C 0 km/h
Sensor: Nr:Datum:Temp:Abs-Feuchte:Windchill:Wind:
Aussen-T/F 576 10-06-2009 19:11:51 18.5 C 8.7 g/m*3 18.5 C 0 km/h
577 10-06-2009 19:23:51 18.4 C 8.65 g/m*3 18.4 C 0 km/h
578 10-06-2009 19:35:52 18.3 C 8.76 g/m*3 18.3 C 0 km/h
579 10-06-2009 19:47:51 17.2 C 8.93 g/m*3 17.2 C 0 km/h
580 10-06-2009 19:59:51 15.8 C 9.42 g/m*3 15.8 C 0 km/h
581 10-06-2009 20:11:51 15.6 C 9.84 g/m*3 15.6 C 0 km/h
582 10-06-2009 20:23:51 15.5 C 9.52 g/m*3 15.5 C 0 km/h
583 10-06-2009 20:35:51 15.6 C 9.44 g/m*3 15.6 C 0 km/h
584 10-06-2009 20:47:50 15.8 C 9.69 g/m*3 15.8 C 0 km/h
585 10-06-2009 20:59:50 15.4 C 9.59 g/m*3 15.4 C 0 km/h
586 10-06-2009 21:11:50 15.5 C 9.65 g/m*3 15.5 C 0 km/h
587 10-06-2009 21:23:51 15.6 C 9.71 g/m*3 15.6 C 0 km/h
588 10-06-2009 21:35:50 15.6 C 9.31 g/m*3 15.6 C 0 km/h
589 10-06-2009 21:47:50 15.8 C 9.15 g/m*3 15.8 C 0 km/h
590 10-06-2009 21:59:50 15.5 C 9.12 g/m*3 15.5 C 0 km/h
591 10-06-2009 22:11:50 14.5 C 9.83 g/m*3 14.5 C 0 km/h
592 10-06-2009 22:24:50 14.3 C 10.07 g/m*3 14.3 C 0 km/h
593 10-06-2009 22:36:50 14.1 C 10.19 g/m*3 14.1 C 0 km/h
594 10-06-2009 22:48:50 14.2 C 10.38 g/m*3 14.2 C 0 km/h
595 10-06-2009 23:00:50 14.2 C 10.5 g/m*3 14.2 C 0 km/h
596 10-06-2009 23:12:51 14.2 C 10.62 g/m*3 14.2 C 0 km/h
597 10-06-2009 23:24:51 14 C 10.49 g/m*3 14 C 0 km/h
598 10-06-2009 23:36:51 14.1 C 10.56 g/m*3 14.1 C 0 km/h
599 10-06-2009 23:48:51 14.4 C 10.51 g/m*3 14.4 C 0 km/h
600 11-06-2009 00:00:51 14.5 C 10.45 g/m*3 14.5 C 0 km/h
Sensor: Nr:Datum:Temp:Abs-Feuchte:Windchill:Wind:
Aussen-T/F 601 11-06-2009 00:12:51 14.2 C 10.14 g/m*3 14.2 C 0 km/h
602 11-06-2009 00:24:51 14.2 C 10.26 g/m*3 14.2 C 0 km/h
603 11-06-2009 00:36:51 14.1 C 10.19 g/m*3 14.1 C 0 km/h
604 11-06-2009 00:48:51 14 C 10.25 g/m*3 14 C 0 km/h
605 11-06-2009 01:00:51 13.8 C 10.25 g/m*3 13.8 C 0 km/h
606 11-06-2009 01:12:51 13.9 C 10.43 g/m*3 13.9 C 0 km/h
607 11-06-2009 01:24:51 13.9 C 10.67 g/m*3 13.9 C 0 km/h
608 11-06-2009 01:36:51 13.9 C 10.79 g/m*3 13.9 C 0 km/h
609 11-06-2009 01:48:51 13.9 C 10.91 g/m*3 13.9 C 0 km/h
610 11-06-2009 02:00:51 14 C 10.98 g/m*3 14 C 0 km/h
611 11-06-2009 02:12:51 13.9 C 11.03 g/m*3 13.9 C 0 km/h
612 11-06-2009 02:24:51 13.9 C 11.03 g/m*3 13.9 C 0 km/h
613 11-06-2009 02:36:51 14 C 11.1 g/m*3 14 C 0 km/h
614 11-06-2009 02:48:51 14 C 11.1 g/m*3 14 C 0 km/h
615 11-06-2009 03:00:52 14 C 11.1 g/m*3 14 C 0 km/h
616 11-06-2009 03:12:52 14.1 C 11.29 g/m*3 14.1 C 0 km/h
617 11-06-2009 03:24:52 14.2 C 11.36 g/m*3 14.2 C 0 km/h
618 11-06-2009 03:36:52 14.2 C 11.36 g/m*3 14.2 C 0 km/h
619 11-06-2009 03:48:52 14 C 11.22 g/m*3 14 C 0 km/h
620 11-06-2009 04:00:52 14 C 11.22 g/m*3 14 C 0 km/h
621 11-06-2009 04:12:52 14 C 11.34 g/m*3 14 C 0 km/h
622 11-06-2009 04:24:52 14 C 11.34 g/m*3 14 C 0 km/h
623 11-06-2009 04:36:52 14.1 C 11.41 g/m*3 14.1 C 0 km/h
624 11-06-2009 04:48:52 14.2 C 11.48 g/m*3 14.2 C 0 km/h
625 11-06-2009 05:00:52 14.2 C 11.48 g/m*3 14.2 C 0 km/h
Sensor: Nr:Datum:Temp:Abs-Feuchte:Windchill:Wind:
Aussen-T/F 626 11-06-2009 05:12:52 14.2 C 11.48 g/m*3 14.2 C 0 km/h
627 11-06-2009 05:24:52 14.4 C 11.5 g/m*3 14.4 C 0 km/h
628 11-06-2009 05:36:52 14.6 C 11.26 g/m*3 14.6 C 0 km/h
629 11-06-2009 05:48:52 14.5 C 11.07 g/m*3 14.5 C 0 km/h
630 11-06-2009 06:00:52 14.6 C 11.14 g/m*3 14.6 C 0 km/h
631 11-06-2009 06:12:52 14.2 C 10.87 g/m*3 14.2 C 0 km/h
632 11-06-2009 06:24:52 14.2 C 10.87 g/m*3 14.2 C 0 km/h
633 11-06-2009 06:36:52 14.3 C 10.93 g/m*3 14.3 C 0 km/h
634 11-06-2009 06:48:53 14.4 C 11 g/m*3 14.4 C 0 km/h
635 11-06-2009 07:00:53 14.4 C 10.75 g/m*3 14.4 C 0 km/h
636 11-06-2009 07:12:53 14.5 C 10.82 g/m*3 14.5 C 0 km/h
637 11-06-2009 07:24:53 14.5 C 10.94 g/m*3 14.5 C 0 km/h
638 11-06-2009 07:36:53 14.8 C 11.02 g/m*3 14.8 C 0 km/h
639 11-06-2009 07:48:53 14.7 C 10.32 g/m*3 14.7 C 0 km/h
640 11-06-2009 08:00:53 14.7 C 10.2 g/m*3 14.7 C 0 km/h
641 11-06-2009 08:12:53 14.7 C 9.57 g/m*3 14.7 C 0 km/h
642 11-06-2009 08:24:53 14.7 C 9.57 g/m*3 14.7 C 0 km/h
643 11-06-2009 08:36:50 14.8 C 9.5 g/m*3 14.8 C 0 km/h
644 11-06-2009 08:48:49 14.9 C 8.92 g/m*3 14.9 C 0 km/h
645 11-06-2009 09:00:50 15 C 8.72 g/m*3 15 C 0 km/h
646 11-06-2009 09:12:50 15 C 8.33 g/m*3 15 C 0 km/h
647 11-06-2009 09:24:49 15.3 C 8.23 g/m*3 15.3 C 0 km/h
648 11-06-2009 09:36:49 15.1 C 7.74 g/m*3 15.1 C 0 km/h
649 11-06-2009 09:48:02 15 C 7.82 g/m*3 15 C 0 km/h
650 11-06-2009 10:00:02 15 C 7.82 g/m*3 15 C 0 km/h
Sensor: Nr:Datum:Temp:Abs-Feuchte:Windchill:Wind:
Aussen-T/F 651 11-06-2009 10:12:01 14.9 C 8.03 g/m*3 14.9 C 0 km/h
652 11-06-2009 10:24:02 15.1 C 7.87 g/m*3 15.1 C 0 km/h
653 11-06-2009 10:36:01 15.5 C 7.8 g/m*3 15.5 C 0 km/h
654 11-06-2009 10:48:01 15.7 C 7.89 g/m*3 15.7 C 0 km/h
655 11-06-2009 11:00:01 15.2 C 8.05 g/m*3 15.2 C 0 km/h
656 11-06-2009 11:12:01 15.3 C 7.84 g/m*3 15.3 C 0 km/h
657 11-06-2009 11:24:01 15.5 C 7.53 g/m*3 15.5 C 0 km/h
658 11-06-2009 11:36:01 15.4 C 7.23 g/m*3 15.4 C 0 km/h
659 11-06-2009 11:48:01 15.3 C 7.05 g/m*3 15.3 C 0 km/h
660 11-06-2009 12:00:01 15.2 C 6.75 g/m*3 15.2 C 0 km/h
661 11-06-2009 12:12:01 15.2 C 6.62 g/m*3 15.2 C 0 km/h
662 11-06-2009 12:24:00 15.3 C 6.53 g/m*3 15.3 C 0 km/h
663 11-06-2009 12:36:00 15.4 C 6.57 g/m*3 15.4 C 0 km/h
664 11-06-2009 12:48:00 15.3 C 6.66 g/m*3 15.3 C 0 km/h
665 11-06-2009 13:00:00 15.2 C 6.62 g/m*3 15.2 C 0 km/h
666 11-06-2009 13:12:00 15.3 C 6.66 g/m*3 15.3 C 0 km/h
667 11-06-2009 13:24:59 15.4 C 6.96 g/m*3 15.4 C 0 km/h
668 11-06-2009 13:36:00 15.2 C 6.88 g/m*3 15.2 C 0 km/h
669 11-06-2009 13:48:59 15.4 C 6.96 g/m*3 15.4 C 0 km/h
670 11-06-2009 14:00:59 15.5 C 7.67 g/m*3 15.5 C 0 km/h
671 11-06-2009 14:12:59 15.8 C 7.81 g/m*3 15.8 C 0 km/h
672 11-06-2009 14:24:00 17.3 C 7.66 g/m*3 17.3 C 0 km/h
673 11-06-2009 14:36:59 16.9 C 7.05 g/m*3 16.9 C 0 km/h
674 11-06-2009 14:48:59 16.2 C 7.45 g/m*3 16.2 C 0 km/h
675 11-06-2009 15:00:58 16.4 C 7.4 g/m*3 16.4 C 0 km/h
Sensor: Nr:Datum:Temp:Abs-Feuchte:Windchill:Wind:
Aussen-T/F 676 11-06-2009 15:12:58 16.3 C 7.63 g/m*3 16.3 C 0 km/h
677 11-06-2009 15:24:59 16.8 C 7.43 g/m*3 16.8 C 0 km/h
678 11-06-2009 15:36:59 16.8 C 7.29 g/m*3 16.8 C 0 km/h
679 11-06-2009 15:48:58 17.5 C 7.45 g/m*3 17.5 C 0 km/h
680 11-06-2009 16:00:59 16.7 C 7.82 g/m*3 16.7 C 0 km/h
681 11-06-2009 16:12:59 16.4 C 8.1 g/m*3 16.4 C 0 km/h
682 11-06-2009 16:24:58 17.3 C 8.1 g/m*3 17.3 C 0 km/h
683 11-06-2009 16:36:58 16.6 C 7.63 g/m*3 16.6 C 0 km/h
684 11-06-2009 16:48:58 16 C 7.9 g/m*3 16 C 0 km/h
685 11-06-2009 17:00:58 16.2 C 7.72 g/m*3 16.2 C 0 km/h
686 11-06-2009 17:12:59 16.4 C 7.82 g/m*3 16.4 C 0 km/h
687 11-06-2009 17:24:57 16.4 C 8.37 g/m*3 16.4 C 0 km/h
688 11-06-2009 17:36:57 18.3 C 8.6 g/m*3 18.3 C 0 km/h
689 11-06-2009 17:48:57 17.5 C 8.05 g/m*3 17.5 C 0 km/h
690 11-06-2009 18:00:57 16 C 8.31 g/m*3 16 C 0 km/h
691 11-06-2009 18:12:57 14.4 C 9.02 g/m*3 14.4 C 0 km/h
692 11-06-2009 18:24:57 13.2 C 9.19 g/m*3 13.2 C 0 km/h
693 11-06-2009 18:36:57 13.3 C 9.7 g/m*3 13.3 C 0 km/h
694 11-06-2009 18:48:57 14.2 C 10.38 g/m*3 14.2 C 0 km/h
695 11-06-2009 19:00:56 14.2 C 10.38 g/m*3 14.2 C 0 km/h
696 11-06-2009 19:12:56 15.3 C 10.84 g/m*3 15.3 C 0 km/h
697 11-06-2009 19:24:56 16 C 10.49 g/m*3 16 C 0 km/h
698 11-06-2009 19:36:57 16 C 10.63 g/m*3 16 C 0 km/h
699 11-06-2009 19:48:56 14.9 C 10.07 g/m*3 14.9 C 0 km/h
700 11-06-2009 20:00:07 14.4 C 9.89 g/m*3 14.4 C 0 km/h
Sensor: Nr:Datum:Temp:Abs-Feuchte:Windchill:Wind:
Aussen-T/F 701 11-06-2009 20:12:07 13.4 C 9.65 g/m*3 13.4 C 0 km/h
702 11-06-2009 20:24:07 11.9 C 8.68 g/m*3 11.9 C 0 km/h
703 11-06-2009 20:36:07 11.9 C 8.79 g/m*3 11.9 C 0 km/h
704 11-06-2009 20:48:56 12.3 C 8.9 g/m*3 12.3 C 0 km/h
705 11-06-2009 21:00:56 12.5 C 9.02 g/m*3 12.5 C 0 km/h
706 11-06-2009 21:12:56 12.5 C 8.8 g/m*3 12.5 C 0 km/h
707 11-06-2009 21:24:56 12.6 C 8.85 g/m*3 12.6 C 0 km/h
708 11-06-2009 21:36:56 12.5 C 8.8 g/m*3 12.5 C 0 km/h
709 11-06-2009 21:48:56 12.3 C 8.8 g/m*3 12.3 C 0 km/h
710 11-06-2009 22:01:57 12.3 C 8.8 g/m*3 12.3 C 0 km/h
711 11-06-2009 22:13:57 12.4 C 8.85 g/m*3 12.4 C 0 km/h
712 11-06-2009 22:25:57 12.4 C 8.74 g/m*3 12.4 C 0 km/h
713 11-06-2009 22:37:57 12.5 C 8.69 g/m*3 12.5 C 0 km/h
714 11-06-2009 22:49:57 12.4 C 8.74 g/m*3 12.4 C 0 km/h
715 11-06-2009 23:01:57 12.4 C 8.74 g/m*3 12.4 C 0 km/h
716 11-06-2009 23:13:57 12.4 C 8.63 g/m*3 12.4 C 0 km/h
717 11-06-2009 23:25:57 12.1 C 8.47 g/m*3 12.1 C 0 km/h
718 11-06-2009 23:37:58 12 C 8.42 g/m*3 12 C 0 km/h
719 11-06-2009 23:49:58 12 C 8.31 g/m*3 12 C 0 km/h
720 12-06-2009 00:01:58 11.5 C 8.16 g/m*3 11.5 C 0 km/h
721 12-06-2009 00:13:58 11.4 C 8.11 g/m*3 11.4 C 0 km/h
722 12-06-2009 00:25:58 11.3 C 8.06 g/m*3 11.3 C 0 km/h
723 12-06-2009 00:37:58 11.5 C 8.16 g/m*3 11.5 C 0 km/h
724 12-06-2009 00:49:58 11.7 C 8.16 g/m*3 11.7 C 0 km/h
725 12-06-2009 01:01:58 11.6 C 8.21 g/m*3 11.6 C 0 km/h
Sensor: Nr:Datum:Temp:Abs-Feuchte:Windchill:Wind:
Aussen-T/F 726 12-06-2009 01:13:58 11.1 C 8.26 g/m*3 11.1 C 0 km/h
727 12-06-2009 01:25:58 10.8 C 8.4 g/m*3 10.8 C 0 km/h
728 12-06-2009 01:37:58 10.6 C 8.49 g/m*3 10.6 C 0 km/h
729 12-06-2009 01:49:58 10.5 C 8.53 g/m*3 10.5 C 0 km/h
730 12-06-2009 02:01:58 10.4 C 8.58 g/m*3 10.4 C 0 km/h
731 12-06-2009 02:13:58 10.3 C 8.52 g/m*3 10.3 C 0 km/h
732 12-06-2009 02:25:58 10.4 C 8.48 g/m*3 10.4 C 0 km/h
733 12-06-2009 02:37:58 10.3 C 8.24 g/m*3 10.3 C 0 km/h
734 12-06-2009 02:49:58 10.3 C 8.14 g/m*3 10.3 C 0 km/h
735 12-06-2009 03:01:58 10.4 C 8.1 g/m*3 10.4 C 0 km/h
736 12-06-2009 03:13:58 10.4 C 8 g/m*3 10.4 C 0 km/h
737 12-06-2009 03:25:59 10.2 C 7.9 g/m*3 10.2 C 0 km/h
738 12-06-2009 03:37:59 10 C 7.89 g/m*3 10 C 0 km/h
739 12-06-2009 03:49:59 9.9 C 7.94 g/m*3 9.9 C 0 km/h
740 12-06-2009 04:01:59 9.9 C 8.03 g/m*3 9.9 C 0 km/h
741 12-06-2009 04:13:59 10 C 7.99 g/m*3 10 C 0 km/h
742 12-06-2009 04:25:59 9.8 C 8.07 g/m*3 9.8 C 0 km/h
743 12-06-2009 04:37:59 9.6 C 7.97 g/m*3 9.6 C 0 km/h
744 12-06-2009 04:49:59 9.4 C 7.96 g/m*3 9.4 C 0 km/h
745 12-06-2009 05:01:59 9.5 C 8.1 g/m*3 9.5 C 0 km/h
746 12-06-2009 05:13:59 9.6 C 8.06 g/m*3 9.6 C 0 km/h
747 12-06-2009 05:25:59 9.2 C 7.86 g/m*3 9.2 C 0 km/h
748 12-06-2009 05:37:59 9.1 C 7.72 g/m*3 9.1 C 0 km/h
749 12-06-2009 05:49:59 9.1 C 7.72 g/m*3 9.1 C 0 km/h
750 12-06-2009 06:01:59 9.2 C 7.77 g/m*3 9.2 C 0 km/h
Sensor: Nr:Datum:Temp:Abs-Feuchte:Windchill:Wind:
Aussen-T/F 751 12-06-2009 06:13:59 9.1 C 7.72 g/m*3 9.1 C 0 km/h
752 12-06-2009 06:25:58 9.1 C 7.72 g/m*3 9.1 C 0 km/h
753 12-06-2009 06:37:57 9.2 C 7.77 g/m*3 9.2 C 0 km/h
754 12-06-2009 06:49:57 9.3 C 7.82 g/m*3 9.3 C 0 km/h
755 12-06-2009 07:01:57 9.7 C 7.84 g/m*3 9.7 C 0 km/h
756 12-06-2009 07:13:57 10 C 7.61 g/m*3 10 C 0 km/h
757 12-06-2009 07:25:57 10.1 C 7.56 g/m*3 10.1 C 0 km/h
758 12-06-2009 07:37:56 10.2 C 7.52 g/m*3 10.2 C 0 km/h
759 12-06-2009 07:49:56 10.4 C 7.61 g/m*3 10.4 C 0 km/h
760 12-06-2009 08:01:57 10.5 C 7.57 g/m*3 10.5 C 0 km/h
761 12-06-2009 08:13:57 10.8 C 7.71 g/m*3 10.8 C 0 km/h
762 12-06-2009 08:25:56 11 C 7.51 g/m*3 11 C 0 km/h
763 12-06-2009 08:37:56 11.2 C 7.5 g/m*3 11.2 C 0 km/h
764 12-06-2009 08:49:56 11.7 C 7.74 g/m*3 11.7 C 0 km/h
765 12-06-2009 09:01:56 12.1 C 7.83 g/m*3 12.1 C 0 km/h
766 12-06-2009 09:13:56 12.4 C 7.87 g/m*3 12.4 C 0 km/h
767 12-06-2009 09:25:56 12.9 C 8.11 g/m*3 12.9 C 0 km/h
768 12-06-2009 09:37:56 13.4 C 8.14 g/m*3 13.4 C 0 km/h
769 12-06-2009 09:49:55 14.1 C 8.01 g/m*3 14.1 C 0 km/h
770 12-06-2009 10:01:55 15.4 C 8.28 g/m*3 15.4 C 0 km/h
771 12-06-2009 10:13:55 16.9 C 8.05 g/m*3 16.9 C 0 km/h
772 12-06-2009 10:25:55 17.3 C 7.51 g/m*3 17.3 C 0 km/h
773 12-06-2009 10:37:55 17.5 C 7.16 g/m*3 17.5 C 0 km/h
774 12-06-2009 10:49:54 17.2 C 6.74 g/m*3 17.2 C 0 km/h
775 12-06-2009 11:01:55 16.8 C 6.58 g/m*3 16.8 C 0 km/h
Sensor: Nr:Datum:Temp:Abs-Feuchte:Windchill:Wind:
Aussen-T/F 776 12-06-2009 11:13:55 17.1 C 6.11 g/m*3 17.1 C 0 km/h
777 12-06-2009 11:25:55 17.9 C 5.5 g/m*3 17.9 C 0 km/h
778 12-06-2009 11:37:54 18.3 C 5.47 g/m*3 18.3 C 0 km/h
779 12-06-2009 11:49:55 18.7 C 5.6 g/m*3 18.7 C 0 km/h
780 12-06-2009 12:01:54 18.9 C 5.51 g/m*3 18.9 C 0 km/h
781 12-06-2009 12:13:54 17.4 C 5.93 g/m*3 17.4 C 0 km/h
782 12-06-2009 12:25:54 18.5 C 5.85 g/m*3 18.5 C 0 km/h
783 12-06-2009 12:37:53 20.4 C 5.31 g/m*3 20.4 C 0 km/h
784 12-06-2009 12:49:54 20.7 C 4.68 g/m*3 20.7 C 0 km/h
785 12-06-2009 13:01:53 18.1 C 5.1 g/m*3 18.1 C 0 km/h
786 12-06-2009 13:13:53 20.9 C 5.65 g/m*3 20.9 C 0 km/h
787 12-06-2009 13:25:53 23.3 C 4.6 g/m*3 23.3 C 0 km/h
788 12-06-2009 13:37:54 21.8 C 5.56 g/m*3 21.8 C 0 km/h
789 12-06-2009 13:49:53 20.6 C 5.37 g/m*3 20.6 C 0 km/h
790 12-06-2009 14:01:53 21 C 4.95 g/m*3 21 C 0 km/h
791 12-06-2009 14:13:53 21.2 C 4.63 g/m*3 21.2 C 0 km/h
792 12-06-2009 14:25:53 21.3 C 4.85 g/m*3 21.3 C 0 km/h
793 12-06-2009 14:37:53 21.3 C 5.22 g/m*3 21.3 C 0 km/h
794 12-06-2009 14:49:52 21 C 4.95 g/m*3 21 C 0 km/h
795 12-06-2009 15:01:52 20.7 C 5.58 g/m*3 20.7 C 0 km/h
796 12-06-2009 15:13:52 21.8 C 5.56 g/m*3 21.8 C 0 km/h
797 12-06-2009 15:25:52 21.6 C 5.12 g/m*3 21.6 C 0 km/h
798 12-06-2009 15:37:52 21.6 C 5.31 g/m*3 21.6 C 0 km/h
799 12-06-2009 15:49:52 21.5 C 5.28 g/m*3 21.5 C 0 km/h
800 12-06-2009 16:01:52 21.7 C 5.34 g/m*3 21.7 C 0 km/h
Sensor: Nr:Datum:Temp:Abs-Feuchte:Windchill:Wind:
Aussen-T/F 801 12-06-2009 16:13:52 21.4 C 5.25 g/m*3 21.4 C 0 km/h
802 12-06-2009 16:25:52 22.2 C 5.3 g/m*3 22.2 C 0 km/h
803 12-06-2009 16:37:51 23.1 C 5.37 g/m*3 23.1 C 0 km/h
804 12-06-2009 16:49:52 23.6 C 5.32 g/m*3 23.6 C 0 km/h
805 12-06-2009 17:01:51 22.7 C 5.05 g/m*3 22.7 C 0 km/h
806 12-06-2009 17:13:51 22.2 C 4.91 g/m*3 22.2 C 0 km/h
807 12-06-2009 17:25:51 21.6 C 5.12 g/m*3 21.6 C 0 km/h
808 12-06-2009 17:37:51 23 C 4.73 g/m*3 23 C 0 km/h
809 12-06-2009 17:49:51 22.7 C 5.05 g/m*3 22.7 C 0 km/h
810 12-06-2009 18:01:51 22.2 C 4.91 g/m*3 22.2 C 0 km/h
811 12-06-2009 18:13:51 21.8 C 4.99 g/m*3 21.8 C 0 km/h
812 12-06-2009 18:25:50 22.7 C 5.05 g/m*3 22.7 C 0 km/h
813 12-06-2009 18:37:51 22 C 5.05 g/m*3 22 C 0 km/h
814 12-06-2009 18:49:50 22.7 C 5.05 g/m*3 22.7 C 0 km/h
815 12-06-2009 19:01:50 22.7 C 5.05 g/m*3 22.7 C 0 km/h
816 12-06-2009 19:13:50 22.9 C 5.11 g/m*3 22.9 C 0 km/h
817 12-06-2009 19:25:50 23.1 C 5.17 g/m*3 23.1 C 0 km/h
818 12-06-2009 19:37:50 22.9 C 5.11 g/m*3 22.9 C 0 km/h
819 12-06-2009 19:49:49 22.1 C 4.88 g/m*3 22.1 C 0 km/h
820 12-06-2009 20:01:50 21.5 C 4.9 g/m*3 21.5 C 0 km/h
821 12-06-2009 20:13:50 21.5 C 5.09 g/m*3 21.5 C 0 km/h
822 12-06-2009 20:25:50 20.4 C 5.31 g/m*3 20.4 C 0 km/h
823 12-06-2009 20:37:49 20.2 C 5.25 g/m*3 20.2 C 0 km/h
824 12-06-2009 20:49:50 20 C 5.18 g/m*3 20 C 0 km/h
825 12-06-2009 21:01:48 19.7 C 5.43 g/m*3 19.7 C 0 km/h
Sensor: Nr:Datum:Temp:Abs-Feuchte:Windchill:Wind:
Aussen-T/F 826 12-06-2009 21:13:48 19 C 5.54 g/m*3 19 C 0 km/h
827 12-06-2009 21:25:49 18.2 C 5.28 g/m*3 18.2 C 0 km/h
828 12-06-2009 21:37:49 17.8 C 5.46 g/m*3 17.8 C 0 km/h
829 12-06-2009 21:49:48 17.3 C 5.45 g/m*3 17.3 C 0 km/h
830 12-06-2009 22:01:49 16.8 C 5.43 g/m*3 16.8 C 0 km/h
831 12-06-2009 22:13:49 16.5 C 5.48 g/m*3 16.5 C 0 km/h
832 12-06-2009 22:26:50 16.2 C 5.52 g/m*3 16.2 C 0 km/h
833 12-06-2009 22:38:50 15.8 C 5.52 g/m*3 15.8 C 0 km/h
834 12-06-2009 22:50:50 15.5 C 5.95 g/m*3 15.5 C 0 km/h
835 12-06-2009 23:02:50 15 C 6.03 g/m*3 15 C 0 km/h
836 12-06-2009 23:14:50 14.6 C 6.13 g/m*3 14.6 C 0 km/h
837 12-06-2009 23:26:50 14.3 C 6.27 g/m*3 14.3 C 0 km/h
838 12-06-2009 23:38:50 13.9 C 6.59 g/m*3 13.9 C 0 km/h
839 12-06-2009 23:50:50 13.4 C 6.63 g/m*3 13.4 C 0 km/h

Legende:
   Min
   Max


Maximal/Minimal-Werte vom 06.06.2009 - 12.06.2009

Sensor Min Max Avg
Temp
(Aussen-T/F)
7.1 °C
06-06-2009  04:43:21
26.1 °C
09-06-2009  17:10:00
15.02 °C
Abs-Feuchte
(Aussen-T/F)
4.24 g/m*3
08-06-2009  15:33:50
11.72 g/m*3
07-06-2009  16:32:57
7.95 g/m*3
Windchill
(Aussen-T/F)
7.1 C
06-06-2009  04:43:21
26.1 C
09-06-2009  17:10:00
15 C

Die Daten stammen von einer Davis Vantage Pro 2 Wetter-Station und werden unter Linux mit der Software wview2wettercgi und aufbereitet. Alle Angaben erfolgen ohne Gewähr für ihre Vollständigkeit oder Richtigkeit.
Kontakt: Rainer Krienke krienke@uni-koblenz.de . Meine Webseiten an der Uni Koblenz oder privat.
Version: $Revision: 0.78 $